loading
|

SL-8 DEB, 1617

Orbit data source: Space-Track

SL-8 DEB, 1617 is space debris in LEO originally from a launch on Sat, 18 Sep 1965 UTC launched from the Tyuratam Missile And Space Complex (TTMTR). Debris objects in space refer to the collection of defunct objects orbiting the Earth. Examples of debris include non-operational satellites, rocket bodies, and fragments generated from explosions, collisions, or faulty payload assembly.

Loading next visibility...
Loading greatness...
SL-8 DEB details
Identifier
1617, 1965-073J
Orbit
LEO
Last TLE update1 day ago
Origin
Flag of CISRVSN (CIS)
ManufacturerUnknown
MissionSpacecraft
Bus & MotorUnknown bus, Unknown motor
MassUnknown
Launch date (UTC)
1965-09-18 (59 years ago)
Launch vehicleUnknown
Launch site
Tyuratam Missile And Space Complex (TTMTR)
Object type
Payload
Rocket body
Debris
Shape & HBRUnknown
Radar Cross SectionMedium (>0.1 m² and <1 m²)

Expand to show TLE details & history

TLE from 1 day ago
0 SL-8 DEB
1 01617U 65073J   24276.31732088  .00000302  00000-0  29076-2 0  9990
2 01617  56.1289 257.1323 0219446 217.5835 260.8269 12.34473442653515
Epoch: 2024-10-02T07:36Z
Definitive object data (Epoch: 2024-10-02T07:36:56.524Z)
Latitude48.42373°
Longitude-97.47232°
Altitude1,567.328 km
Speed7.075 km/s
True Right ascension01h 53m 07s
True Declination48° 16' 13"
Sunlit
Object was in full shadow at TLE epoch
Predictive object data (real-time)
Latitude32.01854°
Longitude-76.71741°
Altitude1,495.189 km
Speed7.137 km/s
Apparent Right ascension00h 39m 25s
Apparent Declination0° 37' 42"
Sunlit
Object is in full shadow
Predictive observer data (real-time)
Local Sidereal Time08:41:26
Azimuth291.196° WNW
Elevation-22.474°
Doppler factor1
Orbital elements
Apogee1,703.473 km
Perigee1,356.394 km
Semi-major axis7,908.07 km
Eccentricity0.0219446
Inclination56.1289°
RAAN257.1323°
Arg. of periapsis217.5835°
True anomaly258.35597°
Mean anomaly260.8269°
Eccentric anomaly259.59026°
Mean motion3.08629 °/min
BSTAR0.0029076
Period116.64 mins
No data available

SL-8 DEB Visibility forecast

Observer location: 39.9160978°, -105.1181434

SL-8 DEB is not visible in the next 10 days
Span
Click to sort rows by Start time (UTC) header in descending order
Start Az.
Max El. time (UTC)
Max El. Az.
Max El.
End time (UTC)
End Az.